Погода в Сладковском

Россия / Свердловская область     57°45′14″N   64°13′03″E
темп.,
°C
ветер,
м/с
пор.,
м/с
влажн.,
%
обл.,
%
осадки,
мм/ч
давл.,
гПа
погр.,
м
17 мая, вт
вт1723:00+10св228571 0.0 99611
02:00+10ссв2283100 0.0 99525
05:00+10ссз238799 0.5 99574
08:00+13сз2474100 0.1 996341
11:00+17з3457100 0.3 997981
14:00+18ююз2349100 1.8 9981286
17:00+15зюз4861100 2.1 999446
20:00+14ююз486894 0.3 1000303
18 мая, ср
ср1823:00+11юз358395 0.6 100292
02:00+9юз35865 0.0 100294
05:00+8ююз23875 0.0 100352
08:00+13ю3468100 0.0 1003319
11:00+17ююз4655100 0.2 10021270
14:00+18юз574776 1.1 10012101
17:00+17ю3552100 1.3 1001672
20:00+14ю356227 0.0 1000106
19 мая, чт
чт1923:00+11ю226251 0.0 99923
02:00+9юз227384 0.0 99931
05:00+10юз2482100 0.1 998109
08:00+10юз2487100 4.0 998333
11:00+12з677498 4.9 9991147
14:00+14зюз5757100 0.1 9991482
17:00+13з796546 0.8 10011201
20:00+9з6106696 0.1 10031143
20 мая, пт
пт2023:00+7зюз410705 0.1 1005303
02:00+5зюз397899 0.0 1005251
05:00+4юз27875 0.0 1005165
08:00+8зюз467275 0.0 1005813
11:00+10зюз475590 0.1 10051645
14:00+14зюз573795 0.0 10042256
17:00+14юз463486 0.0 10032331
20:00+11юз2351100 0.0 100243
21 мая, сб
сб2123:00+7ссз346241 0.0 100260
02:00+5ссв237262 0.0 100155
05:00+4ссз237624 0.0 100256
08:00+9ссз225713 0.0 1001426
11:00+12зсз2242100 0.0 10011639
14:00+15зюз1235100 0.0 10002233
17:00+15ю0134100 0.0 9992158
20:00+12с1151100 0.0 99916